Temperature
5 3 3 2 1 0 -0 -1 -2 -2 -3 -4 -5 -5 -6 -7 -8 -8 -8 -9 -9 -9 -9 -9 -10 -10 -11 -11 -11 -12 -12 -12 -13 -12 -11 -11 -10 -10 -10 -9 -9 -8 -7
5 3 3 2 1 0 -0 -1 -2 -3 -3 -4 -5 -5 -6 -7 -8 -8 -8 -8 -9 -9 -9 -9 -10 -10 -11 -11 -11 -11 -12 -12 -12 -12 -11 -11 -11 -10 -10 -10 -10 -9 -8
4 3 2 2 1 0 -1 -1 -2 -3 -3 -4 -5 -5 -6 -7 -7 -8 -8 -8 -8 -8 -9 -9 -10 -10 -11 -11 -11 -11 -11 -11 -11 -12 -11 -11 -11 -11 -11 -10 -10 -9 -8
4 3 2 2 1 0 -1 -2 -2 -3 -3 -4 -4 -5 -6 -6 -7 -7 -8 -8 -8 -8 -9 -9 -10 -10 -11 -11 -11 -11 -11 -11 -11 -11 -11 -11 -11 -11 -11 -11 -11 -9 -8
4 3 2 2 1 -0 -1 -2 -2 -3 -3 -4 -4 -5 -5 -6 -7 -7 -8 -8 -8 -8 -9 -9 -10 -11 -11 -11 -11 -11 -11 -11 -11 -11 -11 -12 -12 -12 -12 -11 -11 -10 -9
5 3 2 2 1 -0 -1 -2 -2 -3 -3 -4 -4 -5 -5 -6 -6 -8 -8 -8 -8 -8 -9 -9 -10 -10 -11 -11 -11 -11 -11 -11 -11 -11 -11 -12 -12 -12 -12 -12 -12 -11 -10
5 4 2 1 0 -0 -1 -2 -2 -3 -3 -4 -4 -4 -5 -5 -6 -8 -8 -8 -8 -8 -9 -9 -10 -10 -11 -11 -10 -10 -11 -11 -11 -11 -12 -12 -12 -12 -12 -12 -11 -11 -11
5 4 3 1 1 -0 -1 -2 -2 -3 -3 -3 -4 -4 -5 -5 -6 -8 -8 -8 -8 -9 -9 -9 -10 -10 -10 -10 -10 -10 -11 -11 -11 -12 -12 -12 -12 -12 -12 -11 -11 -11 -10
6 4 3 2 1 -0 -1 -1 -2 -3 -3 -3 -4 -4 -5 -5 -6 -7 -8 -9 -9 -9 -9 -9 -10 -10 -10 -9 -10 -11 -11 -11 -12 -12 -12 -12 -12 -12 -12 -11 -11 -11 -11
7 5 3 2 1 -0 -1 -1 -2 -3 -3 -3 -4 -4 -5 -5 -6 -7 -9 -9 -9 -9 -9 -9 -10 -10 -10 -10 -10 -11 -11 -11 -12 -12 -12 -12 -12 -12 -12 -12 -12 -11 -11
7 5 3 2 1 -0 -1 -2 -2 -3 -3 -3 -4 -4 -5 -5 -6 -6 -8 -9 -9 -9 -9 -10 -10 -10 -10 -10 -11 -11 -11 -11 -12 -12 -13 -12 -12 -12 -12 -12 -11 -11 -11
6 5 3 2 1 -0 -1 -2 -2 -3 -3 -3 -4 -4 -5 -5 -6 -7 -8 -9 -9 -9 -10 -10 -10 -10 -10 -11 -11 -11 -12 -12 -12 -13 -13 -13 -12 -12 -11 -11 -11 -10 -9
5 4 3 2 0 -1 -1 -2 -2 -3 -3 -3 -4 -4 -5 -5 -6 -7 -8 -9 -9 -10 -10 -10 -10 -10 -10 -11 -11 -12 -12 -12 -13 -13 -13 -13 -12 -12 -11 -10 -10 -9 -8
5 4 3 1 0 -1 -1 -2 -2 -2 -3 -3 -4 -4 -5 -5 -6 -7 -8 -9 -9 -9 -9 -9 -10 -10 -10 -10 -11 -11 -12 -12 -13 -13 -13 -12 -12 -11 -11 -10 -9 -8 -7
4 3 2 1 0 -1 -1 -1 -2 -2 -3 -3 -4 -4 -5 -5 -6 -8 -9 -9 -10 -10 -9 -9 -9 -9 -10 -10 -11 -11 -12 -12 -12 -12 -12 -12 -12 -11 -10 -10 -9 -8 -7
3 2 1 0 -0 -1 -1 -2 -2 -3 -3 -3 -4 -4 -5 -5 -6 -8 -9 -9 -9 -9 -9 -9 -9 -10 -10 -11 -11 -11 -11 -12 -12 -12 -12 -12 -12 -11 -10 -9 -8 -7 -6
3 1 0 -0 -0 -1 -1 -2 -2 -3 -3 -4 -4 -5 -5 -6 -7 -7 -8 -8 -8 -9 -9 -9 -9 -10 -10 -11 -11 -11 -11 -11 -11 -12 -12 -12 -11 -11 -10 -9 -8 -7 -6
1 0 -1 -1 -0 -0 -1 -1 -2 -3 -3 -3 -4 -5 -5 -6 -6 -7 -8 -8 -8 -8 -8 -9 -9 -10 -10 -10 -11 -11 -11 -11 -11 -11 -11 -11 -11 -11 -10 -9 -8 -7 -6
1 -1 -2 -2 -2 -1 -1 -2 -2 -3 -3 -4 -4 -5 -5 -6 -6 -7 -7 -8 -8 -8 -8 -9 -9 -10 -10 -10 -10 -11 -11 -11 -11 -11 -11 -11 -11 -11 -10 -9 -8 -7 -6
-0 -1 -3 -3 -3 -2 -2 -2 -2 -3 -3 -4 -4 -4 -5 -6 -6 -7 -7 -7 -8 -8 -8 -9 -9 -9 -10 -10 -10 -10 -11 -11 -11 -11 -11 -11 -11 -11 -10 -9 -9 -7 -6
-1 -2 -4 -5 -5 -3 -2 -2 -2 -3 -3 -3 -4 -4 -5 -6 -6 -7 -7 -7 -8 -8 -8 -8 -9 -9 -9 -10 -10 -10 -10 -10 -11 -11 -11 -11 -11 -11 -10 -9 -9 -8 -6
-2 -3 -4 -6 -5 -4 -3 -2 -2 -3 -3 -3 -4 -5 -5 -6 -6 -7 -7 -7 -7 -8 -8 -8 -9 -9 -9 -9 -10 -10 -10 -10 -10 -10 -11 -11 -10 -10 -10 -9 -9 -8 -7
-3 -3 -5 -6 -6 -5 -4 -3 -3 -3 -3 -3 -4 -5 -5 -5 -6 -7 -7 -7 -7 -8 -8 -8 -9 -9 -9 -9 -9 -10 -10 -10 -10 -11 -11 -11 -10 -10 -10 -10 -9 -8 -7
-3 -4 -5 -6 -7 -6 -5 -3 -3 -3 -3 -4 -4 -4 -5 -5 -6 -7 -7 -7 -7 -8 -8 -8 -8 -8 -9 -9 -9 -9 -10 -10 -10 -10 -11 -10 -10 -10 -10 -10 -9 -9 -8
-4 -5 -6 -7 -7 -7 -6 -4 -3 -3 -3 -4 -4 -4 -5 -5 -6 -7 -7 -7 -7 -7 -8 -8 -8 -8 -8 -9 -9 -9 -9 -10 -10 -10 -10 -10 -10 -10 -10 -10 -9 -9 -8
-4 -6 -7 -7 -8 -7 -6 -5 -3 -3 -3 -4 -4 -4 -5 -5 -6 -7 -7 -7 -7 -7 -8 -8 -8 -8 -8 -8 -9 -9 -9 -10 -10 -10 -10 -10 -10 -10 -10 -10 -10 -9 -9
Wind_Speed
15 13 11 11 10 9 8 9 8 7 7 7 7 8 8 9 8 9 11 10 12 13 13 14 16 15 13 12 11 11 12 12 16 16 14 12 12 13 13 14 16 13 15
15 13 12 10 9 9 9 9 8 8 7 7 7 8 9 9 9 10 12 13 12 15 16 16 17 15 15 13 12 12 12 13 15 19 15 12 12 11 12 12 12 12 11
14 13 12 11 11 11 10 9 8 8 8 7 7 8 9 10 11 11 12 13 15 16 17 16 17 15 15 13 13 13 13 14 13 15 15 12 10 10 11 12 12 10 12
14 14 14 14 13 11 9 8 8 8 7 8 8 9 10 10 11 12 13 14 15 16 15 14 14 14 14 14 13 14 14 13 13 12 13 12 11 8 8 9 12 9 11
15 15 15 13 11 9 9 9 8 8 8 8 8 9 10 9 10 12 13 13 12 11 10 11 12 15 19 16 13 11 11 11 11 11 13 13 11 8 8 8 12 11 11
17 16 13 11 11 11 10 9 8 8 7 7 8 9 10 10 17 22 18 9 8 8 9 9 11 13 18 22 24 23 20 13 11 12 12 12 11 10 10 10 10 11 8
17 15 14 13 13 12 11 9 9 8 7 8 9 9 10 12 19 21 21 11 6 8 9 9 10 12 17 11 19 23 18 21 21 15 14 13 14 12 12 13 12 12 12
17 15 14 14 13 11 11 11 10 7 7 7 9 9 9 12 17 19 19 8 6 8 8 9 10 12 15 17 14 9 10 12 16 12 12 13 14 13 13 13 13 12 12
18 17 16 15 14 13 13 12 9 7 8 8 8 8 8 10 15 17 17 5 7 8 8 9 11 11 22 25 11 9 11 11 15 18 20 19 20 19 15 9 7 8 10
20 18 16 16 15 15 14 12 9 8 8 8 8 7 7 8 13 15 15 5 7 7 7 8 15 18 23 22 10 9 12 11 8 11 14 16 13 14 16 8 6 8 7
15 15 16 16 16 14 12 10 9 8 7 7 7 7 7 8 10 13 14 6 6 6 7 7 10 21 22 21 18 10 16 15 9 10 10 10 9 8 8 8 8 8 9
14 16 17 16 14 13 12 11 9 8 8 7 6 6 6 6 8 11 14 13 11 5 7 8 10 20 20 20 16 18 22 18 10 10 10 10 9 9 8 9 9 10 12
16 17 15 15 14 12 13 12 9 8 7 6 6 6 5 5 6 12 13 14 14 8 6 13 16 18 17 13 17 21 17 11 10 11 11 11 10 9 9 8 8 9 11
17 16 15 15 14 13 11 10 9 9 8 7 7 6 5 4 5 6 6 7 10 9 6 9 14 15 14 14 14 12 10 10 11 10 11 10 10 9 9 8 7 6 6
16 16 15 15 14 14 13 11 11 10 9 8 7 6 5 5 7 10 6 4 5 5 4 4 5 7 8 8 9 9 9 10 11 10 10 11 11 10 10 9 7 6 4
15 15 13 12 12 12 11 10 15 13 15 16 14 10 8 9 10 10 10 10 10 9 5 4 6 8 9 10 10 10 9 10 10 11 11 11 11 11 10 10 8 6 6
17 15 13 13 13 13 12 11 10 11 15 15 15 14 12 10 9 8 8 7 6 6 3 4 5 7 8 9 9 9 9 10 9 10 10 11 11 11 10 10 10 8 7
16 18 16 13 14 13 13 12 10 10 9 7 8 12 11 9 7 6 4 2 3 3 2 4 5 7 8 8 8 8 8 9 9 9 10 10 10 11 11 11 10 10 9
15 12 13 12 12 12 12 11 10 10 9 6 4 5 9 7 6 5 2 1 2 3 3 4 5 6 7 7 8 8 8 8 9 9 9 10 10 10 11 11 10 14 10
14 21 17 12 12 12 12 12 11 10 9 8 8 7 5 5 3 3 3 3 3 3 4 4 5 6 7 7 7 7 7 8 8 8 9 9 10 10 11 12 11 11 9
12 16 24 15 12 13 13 13 12 11 10 9 8 9 12 6 6 5 4 4 4 4 4 4 5 6 6 6 6 7 7 7 7 8 9 9 10 10 10 10 11 10 10
11 12 13 12 13 13 13 12 11 11 11 10 7 8 15 7 5 5 5 4 4 4 4 4 5 5 6 6 6 6 7 7 7 8 8 9 9 10 10 10 11 11 11
12 13 13 12 12 16 15 11 11 11 11 10 9 8 7 7 6 6 5 4 4 4 4 4 4 5 5 5 5 5 5 6 6 6 8 8 9 10 10 11 12 13 12
13 14 14 14 14 13 13 13 12 12 11 11 10 9 8 7 6 6 5 4 4 3 3 4 4 6 8 7 5 5 4 5 4 5 6 7 8 9 9 10 11 13 12
13 14 14 14 14 14 13 13 13 12 12 11 11 10 9 8 7 6 5 4 4 3 4 4 4 5 7 8 7 5 7 8 7 6 4 6 8 9 9 10 11 11 10
13 14 13 13 13 13 13 13 13 13 12 11 11 10 9 8 7 6 6 5 4 3 3 4 5 6 8 7 7 7 7 7 7 8 5 5 7 9 10 9 11 11 11
Wind_Direction
193 194 193 194 196 197 206 217 224 231 237 241 247 252 257 261 260 262 266 269 269 274 276 274 274 274 274 271 266 265 266 267 277 285 286 286 284 287 292 293 292 289 290
193 192 196 192 191 199 211 219 222 230 235 241 248 256 262 266 264 264 271 277 273 276 278 278 278 279 276 274 268 266 269 269 271 282 286 287 282 283 286 288 295 295 291
190 192 194 196 198 206 212 217 220 227 236 245 251 259 264 268 270 269 268 272 273 274 277 278 278 277 276 273 267 268 271 274 274 279 287 288 284 281 284 288 288 285 287
191 193 199 202 203 206 207 211 217 224 237 250 256 261 265 268 271 274 273 271 272 275 276 273 273 274 274 270 270 267 270 274 278 282 287 289 287 279 276 289 294 288 287
193 198 204 201 197 198 204 209 216 226 242 250 261 268 271 273 272 269 269 270 274 281 278 273 275 287 289 287 283 277 276 279 286 288 289 290 289 288 285 286 290 294 289
197 202 199 192 193 200 205 210 218 230 242 253 260 268 275 279 290 297 298 285 285 284 284 283 287 291 295 300 300 299 296 296 296 292 293 290 288 284 282 281 283 287 290
199 199 194 192 197 202 207 211 221 230 240 253 261 266 271 281 296 300 304 308 288 284 285 289 299 301 307 292 291 294 294 296 299 296 291 288 286 282 278 276 270 267 267
200 198 194 192 197 199 204 216 223 226 236 250 261 266 271 283 299 305 308 316 285 281 281 282 286 288 293 293 286 278 267 275 286 287 279 280 279 276 266 264 266 268 268
203 200 195 191 193 196 208 218 221 223 236 245 255 262 268 283 301 304 310 293 287 283 282 287 297 292 301 313 321 300 294 290 296 302 303 303 303 304 299 286 273 270 277
206 201 194 191 193 200 208 213 214 219 233 245 255 256 264 274 297 306 310 290 294 291 289 294 313 316 320 332 331 315 309 306 303 308 308 307 302 298 298 288 267 263 268
200 192 190 192 195 199 202 205 210 218 229 239 253 259 264 275 297 307 309 308 299 303 309 310 312 322 333 338 336 322 319 332 328 312 307 302 298 289 281 267 247 240 243
189 191 192 191 191 194 196 202 206 213 225 239 248 260 254 267 291 300 311 319 323 306 308 308 314 330 339 339 336 333 338 338 323 317 316 314 311 304 294 280 261 244 237
190 194 193 190 190 188 192 198 201 207 219 232 238 252 256 255 279 300 311 319 324 322 309 324 333 338 340 335 333 340 342 331 324 326 322 318 314 304 300 294 278 258 247
195 195 192 190 190 191 193 196 200 204 212 222 230 240 249 258 271 279 276 291 310 316 318 327 336 339 339 336 337 334 330 328 332 326 320 319 317 316 314 312 304 293 272
197 195 193 193 190 192 197 201 202 206 205 209 217 221 229 247 265 289 303 292 296 308 331 328 331 335 337 333 331 331 331 333 334 330 328 328 328 328 325 325 315 308 282
198 197 194 191 190 191 193 202 216 213 223 228 224 218 227 243 274 296 308 315 323 337 354 332 334 334 333 332 332 331 332 337 336 333 332 332 331 330 329 329 327 319 307
201 195 192 189 189 190 191 191 197 214 224 228 230 232 235 246 268 288 300 320 323 345 348 321 324 326 325 326 326 326 328 330 332 332 333 334 333 332 332 333 334 330 322
203 199 192 190 189 189 190 190 188 189 196 212 223 227 229 237 255 271 291 326 315 325 303 307 315 319 321 323 325 326 326 329 335 335 334 335 335 334 335 336 334 332 327
201 200 195 188 187 187 186 184 184 187 191 188 181 212 216 219 230 244 237 209 260 285 297 303 307 314 318 320 322 323 324 327 331 333 334 336 337 336 336 336 334 334 335
203 202 193 187 185 184 183 183 183 185 188 189 193 193 182 182 198 216 217 223 244 267 283 296 305 310 316 317 320 323 326 328 332 334 334 335 336 337 336 336 337 336 333
198 200 198 191 188 186 186 186 183 183 187 191 195 192 187 188 199 204 212 220 233 255 274 290 300 310 313 315 318 323 326 327 331 333 334 336 338 340 339 338 339 339 338
193 194 193 187 188 189 188 185 182 182 187 186 183 194 199 188 189 198 209 219 228 244 260 276 290 299 307 311 316 322 325 326 331 335 335 336 339 342 343 345 347 347 348
192 191 192 188 187 193 191 184 182 182 184 183 181 182 186 182 190 198 206 210 217 241 261 274 289 301 309 308 308 312 316 319 320 325 333 340 344 346 348 349 349 352 353
193 192 192 189 187 190 189 185 184 183 182 180 180 182 184 183 187 194 195 198 211 238 259 275 287 302 314 321 317 313 307 308 316 331 339 342 346 348 350 353 354 355 357
195 194 193 190 188 190 190 187 184 182 181 181 181 181 180 180 184 189 187 191 204 233 262 280 290 305 315 321 321 317 327 342 354 4 353 351 349 350 353 355 358 359 4
196 195 194 191 189 189 189 187 184 182 182 182 179 176 175 176 178 180 180 186 201 227 257 280 295 308 316 320 322 328 337 347 359 18 18 357 357 0 4 4 0 7 9
Height
1485 1487 1489 1490 1490 1489 1489 1489 1488 1486 1484 1481 1477 1474 1470 1466 1463 1458 1454 1450 1445 1441 1436 1431 1425 1420 1415 1410 1406 1402 1398 1393 1385 1376 1373 1368 1365 1361 1358 1355 1351 1348 1346
1478 1480 1481 1482 1483 1482 1483 1483 1482 1480 1478 1475 1472 1468 1464 1460 1456 1452 1448 1443 1439 1434 1429 1423 1417 1412 1407 1402 1398 1394 1390 1385 1379 1371 1365 1362 1358 1355 1351 1347 1344 1341 1339
1470 1472 1473 1474 1475 1476 1476 1476 1476 1474 1472 1469 1466 1462 1458 1454 1450 1446 1441 1437 1432 1427 1422 1415 1410 1404 1399 1395 1391 1386 1382 1377 1373 1366 1359 1355 1351 1348 1344 1340 1337 1334 1332
1461 1463 1465 1467 1468 1469 1470 1470 1469 1468 1466 1463 1460 1457 1453 1448 1443 1439 1435 1431 1426 1421 1415 1409 1403 1398 1392 1387 1383 1379 1375 1370 1365 1360 1354 1348 1344 1341 1338 1333 1329 1326 1324
1453 1454 1456 1460 1461 1462 1463 1463 1463 1462 1460 1458 1454 1451 1447 1442 1437 1433 1429 1425 1420 1415 1409 1404 1398 1392 1387 1382 1378 1373 1368 1363 1358 1353 1347 1342 1337 1334 1331 1327 1323 1319 1316
1443 1445 1449 1452 1454 1455 1456 1457 1456 1455 1454 1451 1448 1445 1441 1437 1432 1427 1425 1421 1416 1410 1404 1398 1392 1386 1380 1375 1371 1367 1363 1358 1352 1346 1340 1335 1330 1327 1324 1321 1318 1314 1311
1435 1437 1441 1444 1446 1448 1449 1450 1449 1449 1448 1445 1443 1439 1435 1431 1426 1422 1419 1416 1410 1405 1399 1392 1386 1380 1375 1369 1364 1359 1355 1351 1347 1341 1334 1328 1323 1320 1317 1314 1311 1309 1305
1425 1428 1432 1435 1438 1440 1442 1442 1443 1443 1441 1440 1437 1434 1429 1425 1421 1417 1414 1410 1405 1400 1394 1388 1382 1375 1370 1364 1357 1352 1348 1343 1338 1332 1327 1321 1316 1313 1310 1308 1305 1302 1299
1415 1418 1422 1426 1429 1432 1434 1435 1436 1436 1435 1433 1431 1428 1424 1420 1416 1411 1409 1404 1400 1395 1390 1384 1378 1372 1366 1360 1354 1347 1341 1336 1330 1325 1320 1314 1309 1306 1303 1302 1299 1298 1294
1406 1409 1414 1418 1421 1423 1426 1428 1429 1429 1428 1427 1425 1423 1419 1415 1411 1407 1404 1400 1395 1390 1385 1380 1374 1369 1363 1357 1350 1343 1336 1330 1323 1317 1311 1306 1302 1298 1296 1294 1292 1291 1290
1399 1402 1405 1408 1412 1415 1418 1420 1422 1422 1422 1421 1420 1417 1414 1410 1406 1402 1399 1396 1391 1386 1381 1376 1370 1366 1360 1354 1347 1341 1334 1327 1319 1312 1306 1301 1296 1292 1290 1288 1286 1285 1284
1390 1391 1394 1398 1403 1406 1410 1412 1414 1415 1415 1415 1414 1412 1409 1406 1401 1397 1394 1392 1388 1383 1377 1372 1367 1363 1357 1350 1344 1338 1331 1323 1315 1309 1302 1297 1292 1287 1284 1281 1280 1278 1277
1380 1382 1386 1390 1394 1398 1401 1404 1406 1408 1408 1409 1408 1407 1405 1401 1397 1394 1390 1387 1384 1380 1375 1370 1365 1360 1354 1348 1342 1336 1328 1320 1313 1307 1300 1294 1289 1284 1280 1277 1274 1273 1272
1371 1373 1377 1380 1385 1389 1393 1397 1399 1400 1401 1402 1402 1401 1399 1397 1393 1390 1386 1383 1380 1376 1372 1367 1363 1358 1353 1347 1340 1333 1326 1320 1313 1306 1298 1292 1286 1281 1277 1273 1270 1268 1267
1362 1364 1367 1371 1376 1380 1384 1388 1391 1394 1395 1396 1396 1396 1394 1392 1389 1386 1384 1380 1377 1373 1369 1365 1361 1355 1350 1344 1338 1332 1326 1319 1312 1305 1297 1290 1284 1279 1275 1271 1268 1266 1264
1352 1355 1358 1362 1367 1372 1377 1381 1384 1387 1389 1390 1390 1390 1389 1387 1385 1382 1380 1377 1374 1371 1367 1363 1359 1354 1348 1343 1337 1331 1325 1319 1312 1305 1298 1291 1284 1278 1273 1270 1266 1264 1262
1343 1345 1348 1352 1357 1363 1368 1372 1376 1380 1382 1384 1385 1385 1384 1383 1381 1379 1376 1373 1371 1368 1365 1361 1357 1353 1348 1343 1337 1332 1326 1320 1313 1306 1299 1291 1285 1279 1274 1269 1265 1262 1260
1334 1336 1338 1341 1347 1353 1359 1364 1369 1372 1375 1376 1379 1380 1380 1379 1377 1375 1373 1370 1368 1366 1363 1360 1356 1352 1348 1343 1338 1332 1326 1320 1313 1307 1300 1293 1286 1280 1274 1270 1265 1262 1259
1326 1327 1330 1333 1338 1344 1350 1356 1361 1365 1368 1371 1373 1374 1375 1374 1373 1371 1369 1367 1366 1364 1361 1358 1355 1351 1347 1343 1338 1333 1327 1321 1315 1308 1301 1294 1288 1282 1276 1271 1266 1263 1259
1317 1319 1322 1326 1330 1335 1341 1348 1353 1357 1361 1364 1366 1369 1370 1370 1369 1368 1366 1364 1363 1361 1359 1357 1354 1351 1347 1342 1338 1333 1328 1322 1316 1310 1303 1296 1290 1284 1278 1272 1267 1263 1259
1309 1311 1315 1317 1321 1326 1333 1339 1345 1350 1354 1357 1361 1363 1365 1365 1365 1364 1362 1361 1360 1358 1357 1355 1353 1350 1346 1342 1338 1333 1328 1323 1318 1312 1305 1299 1292 1286 1280 1275 1270 1265 1260
1301 1303 1307 1309 1313 1318 1325 1332 1337 1342 1347 1351 1355 1358 1359 1360 1361 1360 1359 1358 1357 1356 1355 1353 1351 1349 1346 1342 1338 1333 1329 1324 1319 1314 1308 1302 1295 1289 1283 1277 1272 1267 1263
1294 1295 1299 1303 1306 1312 1318 1324 1330 1336 1340 1345 1349 1352 1354 1356 1357 1356 1356 1355 1354 1353 1352 1351 1350 1348 1345 1342 1338 1334 1330 1326 1321 1316 1311 1305 1299 1292 1286 1281 1275 1270 1266
1286 1288 1292 1296 1300 1305 1310 1316 1323 1329 1334 1339 1343 1346 1349 1351 1352 1353 1352 1352 1351 1350 1350 1349 1348 1347 1345 1342 1339 1335 1331 1327 1323 1319 1314 1308 1303 1297 1291 1285 1280 1276 1271
1279 1281 1285 1289 1293 1298 1304 1310 1316 1322 1328 1332 1337 1341 1344 1347 1348 1349 1349 1349 1348 1348 1348 1347 1347 1346 1344 1342 1339 1336 1332 1329 1325 1321 1317 1312 1307 1301 1295 1290 1285 1281 1277
1272 1275 1278 1283 1287 1292 1297 1303 1310 1316 1322 1327 1331 1336 1340 1343 1345 1346 1346 1346 1346 1345 1345 1345 1345 1344 1343 1341 1339 1337 1334 1330 1327 1323 1319 1315 1310 1305 1300 1295 1290 1286 1283